Latest Coastal Weather Observations for Wynyard

IDV60701

Issued at 12:02 am EST Friday 1 July 2016 (issued every 10 minutes, with the page automatically refreshed every 10 minutes)

About coastal observations | Map of coastal stations | Coastal observations for VIC | Marine services | Other Formats
Station Details ID: 091107 Name: WYNYARD AIRPORT Lat: -41.00 Lon: 145.73 Height: 12.0 m
Data from the previous 72 hours. | See also: Recent months at Wynyard
Date/Time
EST
Temp
°C
Wind Pressure Rain since
9am
mm
Weather Cloud Vis
km
Sea
Height
m
Swell
Dir  Spd
kts
Gust
kts
hPa Trend Height
m
Period
s
Dir
01/12:00am 7.7 SW 7 9 1006.4 - 10.6 - Partly cloudy 10 - - - -
 
Date/Time
EST
Temp
°C
Wind Pressure Rain since
9am
mm
Weather Cloud Vis
km
Sea
Height
m
Swell
Dir  Spd
kts
Gust
kts
hPa Trend Height
m
Period
s
Dir
30/11:30pm 6.7 SW 6 7 1006.2 - 10.6 - - 10 - - - -
30/11:21pm 6.7 WSW 6 8 1005.9 - 10.6 - - 10 - - - -
30/11:00pm 7.1 W 5 6 1005.8 - 10.6 - - 2 - - - -
30/10:33pm 7.6 W 5 6 1005.4 - 10.6 - - 5 - - - -
30/10:30pm 7.7 WNW 5 6 1005.4 - 10.6 - - 6 - - - -
30/10:22pm 8.0 WNW 6 7 1005.2 - 10.6 - - 6 - - - -
30/10:00pm 7.6 W 5 6 1004.9 - 10.6 - Partly cloudy 4 - - - -
30/09:44pm 8.4 WNW 4 5 1004.7 - 10.6 - Partly cloudy 5 - - - -
30/09:40pm 8.4 WNW 5 5 1004.6 - 10.6 - Partly cloudy 6 - - - -
30/09:30pm 8.9 WNW 5 6 1004.6 - 10.6 - Partly cloudy 5 - - - -
30/09:21pm 9.1 WNW 5 6 1004.5 - 10.6 - Partly cloudy 5 - - - -
30/09:09pm 9.3 WSW 3 5 1004.3 - 10.6 - Partly cloudy 10 - - - -
30/09:00pm 9.6 SSW 4 5 1004.4 - 10.6 - Cloudy 10 - - - -
30/08:58pm 9.6 SSW 4 5 1004.4 - 10.6 - Partly cloudy 10 - - - -
30/08:30pm 9.3 S 5 7 1004.1 - 10.6 - Partly cloudy 10 - - - -
30/08:00pm 9.1 S 6 7 1003.7 - 10.6 - Partly cloudy 10 - - - -
30/07:30pm 9.2 S 5 6 1003.5 - 10.6 - Partly cloudy 10 - - - -
30/07:00pm 9.8 SW 6 7 1003.2 - 10.6 - Partly cloudy 10 - - - -
30/06:46pm 10.2 W 6 8 1003.0 - 10.6 - Partly cloudy 10 - - - -
30/06:30pm 10.5 NW 7 9 1002.8 - 10.6 - Partly cloudy 8 - - - -
30/06:20pm 10.8 NW 9 15 1002.7 - 10.4 - Partly cloudy 10 - - - -
30/06:00pm 11.3 NW 12 18 1002.7 - 10.2 - Cloudy 10 - - - -
30/05:30pm 11.4 NNW 15 22 1002.1 - 10.2 - Partly cloudy 10 - - - -
30/05:00pm 11.3 NNW 14 20 1001.7 - 10.2 - Partly cloudy 10 - - - -
30/04:30pm 11.1 NNW 15 23 1001.7 - 10.2 - Partly cloudy 9 - - - -
30/04:18pm 11.2 NNW 16 26 1001.7 - 10.2 - Partly cloudy 10 - - - -
30/04:16pm 11.2 NNW 15 26 1001.7 - 10.2 - Partly cloudy 10 - - - -
30/04:05pm 11.0 NNW 15 23 1001.8 - 10.2 - Partly cloudy 5 - - - -
30/04:00pm 11.1 NNW 16 22 1001.8 - 10.2 - Partly cloudy 9 - - - -
30/03:30pm 11.4 NW 15 21 1001.8 - 9.8 - Partly cloudy 10 - - - -
30/03:08pm 11.7 NNW 15 25 1001.7 - 9.6 - Partly cloudy 10 - - - -
30/03:00pm 11.7 NNW 16 22 1001.8 - 9.6 - Cloudy 10 - - - -
30/02:40pm 11.6 NW 16 27 1001.9 - 9.6 - Partly cloudy 10 - - - -
30/02:38pm 11.6 NW 16 27 1001.9 - 9.6 - Partly cloudy 10 - - - -
30/02:30pm 11.5 NNW 16 22 1001.9 - 9.6 - Partly cloudy 5 - - - -
30/02:20pm 11.1 NW 17 27 1001.9 - 9.6 - Partly cloudy 5 - - - -
30/02:13pm 11.5 NW 16 27 1001.9 - 9.6 - Partly cloudy 10 - - - -
30/02:07pm 11.4 NNW 15 22 1002.0 - 9.6 - Partly cloudy 10 - - - -
30/02:00pm 11.4 NNW 16 22 1002.0 - 9.6 - Partly cloudy 10 - - - -
30/01:57pm 11.4 NNW 17 23 1002.0 - 9.6 - Partly cloudy 10 - - - -
30/01:39pm 11.2 NNW 15 25 1002.2 - 9.6 - Partly cloudy 10 - - - -
30/01:30pm 11.1 NNW 16 25 1002.3 - 9.6 - Partly cloudy 10 - - - -
30/01:15pm 10.8 NNW 18 29 1002.4 - 9.6 - Partly cloudy 6 - - - -
30/01:06pm 10.9 NNW 16 26 1002.5 - 9.6 - Partly cloudy 10 - - - -
30/01:05pm 10.9 NNW 17 26 1002.5 - 9.6 - Partly cloudy 10 - - - -
30/01:04pm 10.9 NNW 17 28 1002.5 - 9.6 - Partly cloudy 10 - - - -
30/01:03pm 10.8 NNW 17 28 1002.5 - 9.6 - Partly cloudy 10 - - - -
30/01:02pm 10.8 NNW 18 28 1002.7 - 9.6 - Partly cloudy 10 - - - -
30/01:00pm 10.8 NNW 19 28 1002.7 - 9.6 - Partly cloudy 10 - - - -
30/12:38pm 10.7 NNW 19 29 1003.0 - 9.4 - Partly cloudy 4 - - - -
30/12:30pm 10.5 NNW 18 27 1003.3 - 8.8 - Partly cloudy 4 - - - -
30/12:17pm 10.3 NNW 15 25 1003.6 - 8.4 - Partly cloudy 4 - - - -
30/12:08pm 10.2 N 15 23 1003.8 - 8.2 - Partly cloudy 5 - - - -
30/12:00pm 10.3 NNW 15 26 1004.0 - 7.6 Rain Cloudy 4 - - - -
30/11:40am 10.3 N 16 26 1004.6 - 6.6 - Partly cloudy 5 - - - -
30/11:30am 10.4 NNW 16 24 1004.7 - 5.8 - Partly cloudy 5 - - - -
30/11:00am 10.7 NNW 17 28 1005.2 - 3.8 - Partly cloudy 4 - - - -
30/10:38am 10.8 NNW 17 28 1005.6 - 2.2 - Partly cloudy 5 - - - -
30/10:30am 10.8 N 17 28 1005.8 - 2.0 - Partly cloudy 7 - - - -
30/10:09am 10.8 N 18 28 1006.0 - 1.6 - Partly cloudy 6 - - - -
30/10:00am 11.0 N 17 26 1006.0 - 1.6 - Partly cloudy 7 - - - -
30/09:34am 11.1 NNW 16 27 1006.3 - 0.8 - Partly cloudy 8 - - - -
30/09:30am 10.9 NNW 17 24 1006.5 - 0.8 - Partly cloudy 8 - - - -
30/09:00am 10.9 NNW 16 23 1006.9 - 2.6 Recent precip. Cloudy 7 - - - -
30/08:33am 10.5 NNW 18 29 1007.1 - 2.2 - Partly cloudy 7 - - - -
30/08:30am 10.5 NNW 17 29 1007.0 - 2.2 - Partly cloudy 7 - - - -
30/08:16am 10.4 NNW 17 27 1007.4 - 1.8 - Partly cloudy 4 - - - -
30/08:07am 10.8 NNW 19 27 1007.5 - 1.0 - Partly cloudy 5 - - - -
30/08:00am 11.4 NNW 21 27 1007.5 - 0.6 - Partly cloudy 10 - - - -
30/07:30am 12.1 NNW 18 29 1007.6 - 0.6 - Partly cloudy 10 - - - -
30/07:00am 11.9 NNW 18 33 1007.8 - 0.6 - Partly cloudy 10 - - - -
30/06:30am 11.8 NNW 21 31 1008.3 - 0.4 - Partly cloudy 10 - - - -
30/06:02am 11.9 NNW 18 28 1008.7 - 0.4 - Partly cloudy 10 - - - -
30/06:00am 11.9 NNW 20 28 1008.7 - 0.4 - Cloudy 9 - - - -
30/05:30am 11.5 N 15 30 1009.1 - 0.4 - Partly cloudy 10 - - - -
30/05:00am 12.0 NNW 20 33 1009.7 - 0.4 - Partly cloudy 10 - - - -
30/04:30am 12.5 N 20 31 1010.1 - 0.4 - Partly cloudy 10 - - - -
30/04:01am 12.3 N 18 28 1010.6 - 0.4 - Partly cloudy 10 - - - -
30/04:00am 12.4 N 19 28 1010.6 - 0.4 - Partly cloudy 10 - - - -
30/03:33am 12.5 N 15 28 1011.3 - 0.4 - Partly cloudy 10 - - - -
30/03:30am 12.4 N 14 23 1011.4 - 0.4 - Partly cloudy 10 - - - -
30/03:02am 12.4 N 16 26 1012.1 - 0.4 - Partly cloudy 10 - - - -
30/03:00am 12.5 NNW 17 26 1012.1 - 0.4 - Cloudy 10 - - - -
30/02:39am 12.3 NNW 15 26 1012.3 - 0.4 - Partly cloudy 10 - - - -
30/02:30am 12.4 N 16 25 1012.5 - 0.4 - Partly cloudy 10 - - - -
30/02:14am 12.4 N 17 27 1012.7 - 0.4 - Partly cloudy 10 - - - -
30/02:00am 12.4 NNW 14 21 1013.1 - 0.4 - Partly cloudy 10 - - - -
30/01:32am 12.3 NNW 15 25 1013.6 - 0.4 - Partly cloudy 10 - - - -
30/01:30am 12.3 NNW 16 25 1013.7 - 0.4 - Partly cloudy 10 - - - -
30/01:20am 12.5 NNW 17 27 1013.9 - 0.4 - Partly cloudy 10 - - - -
30/01:00am 12.3 NNW 16 21 1014.3 - 0.4 - Partly cloudy 10 - - - -
30/12:37am 12.4 NNW 15 25 1014.8 - 0.4 - Partly cloudy 10 - - - -
30/12:30am 12.3 NNW 14 23 1014.8 - 0.4 - Partly cloudy 10 - - - -
30/12:00am 12.3 NNW 17 24 1015.4 - 0.4 - Cloudy 10 - - - -
 
Date/Time
EST
Temp
°C
Wind Pressure Rain since
9am
mm
Weather Cloud Vis
km
Sea
Height
m
Swell
Dir  Spd
kts
Gust
kts
hPa Trend Height
m
Period
s
Dir
29/11:46pm 12.2 NNW 16 27 1015.7 - 0.4 - Partly cloudy 10 - - - -
29/11:30pm 11.9 NNW 16 25 1016.0 - 0.4 - Partly cloudy 10 - - - -
29/11:00pm 12.4 NNW 15 21 1016.3 - 0.4 - Partly cloudy 10 - - - -
29/10:30pm 12.2 N 11 19 1016.4 - 0.4 - Partly cloudy 10 - - - -
29/10:00pm 12.3 NNW 11 16 1017.0 - 0.4 - Partly cloudy 10 - - - -
29/09:30pm 12.5 N 13 22 1017.2 - 0.4 - Partly cloudy 10 - - - -
29/09:00pm 12.7 N 9 16 1017.4 - 0.4 - Cloudy 10 - - - -
29/08:30pm 12.2 N 8 11 1017.9 - 0.4 - Partly cloudy 10 - - - -
29/08:00pm 12.1 N 9 15 1018.2 - 0.4 - Partly cloudy 10 - - - -
29/07:30pm 10.0 NW 4 8 1018.3 - 0.4 - Partly cloudy 10 - - - -
29/07:00pm 8.6 CALM 0 0 1018.5 - 0.4 - Partly cloudy 10 - - - -
29/06:30pm 8.1 S 4 5 1018.7 - 0.4 - Partly cloudy 10 - - - -
29/06:00pm 9.1 S 1 4 1018.9 - 0.4 - Cloudy 10 - - - -
29/05:30pm 9.2 SSE 3 4 1019.0 - 0.4 - Partly cloudy 10 - - - -
29/05:00pm 10.9 CALM 0 2 1019.3 - 0.4 - Partly cloudy 10 - - - -
29/04:30pm 11.8 NW 5 6 1019.5 - 0.4 - Partly cloudy 10 - - - -
29/04:00pm 12.2 WNW 6 7 1019.7 - 0.2 - Partly cloudy 10 - - - -
29/03:30pm 12.3 WNW 8 11 1019.9 - 0.2 - Partly cloudy 10 - - - -
29/03:00pm 12.9 NW 13 19 1020.0 - 0.2 Recent precip. Cloudy 10 - - - -
29/02:30pm 13.6 NW 13 18 1020.0 - 0.0 - Partly cloudy 10 - - - -
29/02:00pm 13.5 NNW 12 17 1020.2 - 0.0 - Partly cloudy 10 - - - -
29/01:30pm 15.7 NW 10 15 1020.3 - 0.0 - Partly cloudy 10 - - - -
29/01:00pm 15.2 NW 14 19 1020.7 - 0.0 - Partly cloudy 10 - - - -
29/12:30pm 15.7 NW 12 16 1021.1 - 0.0 - Partly cloudy 10 - - - -
29/12:00pm 15.3 WNW 8 10 1021.5 - 0.0 - - 10 - - - -
29/11:30am 14.7 WNW 9 11 1021.8 - 0.0 - - 10 - - - -
29/11:00am 14.4 WNW 10 15 1022.3 - 0.0 - Partly cloudy 10 - - - -
29/10:30am 14.0 NW 6 8 1022.4 - 0.0 - Partly cloudy 10 - - - -
29/10:00am 12.5 WNW 6 8 1022.5 - 0.0 - - 10 - - - -
29/09:30am 11.0 WNW 5 6 1022.5 - 0.0 - - 8 - - - -
29/09:00am 8.6 WNW 2 4 1022.6 - 0.6 - Partly cloudy 9 - - - -
29/08:30am 6.0 CALM 0 2 1022.3 - 0.6 - - 9 - - - -
29/08:00am 4.0 WSW 5 6 1021.8 - 0.6 - - 9 - - - -
29/07:52am 4.9 WSW 5 6 1021.7 - 0.6 - - 9 - - - -
29/07:30am 5.5 WSW 6 7 1021.5 - 0.6 - Partly cloudy 5 - - - -
29/07:23am 5.3 WSW 5 6 1021.4 - 0.6 - Partly cloudy 5 - - - -
29/07:00am 6.6 W 2 4 1021.3 - 0.6 - Partly cloudy 10 - - - -
29/06:30am 8.3 NW 5 7 1020.9 - 0.6 - Partly cloudy 10 - - - -
29/06:00am 8.5 NW 7 8 1020.6 - 0.6 - Partly cloudy 10 - - - -
29/05:30am 8.2 NW 7 8 1020.3 - 0.6 - Partly cloudy 10 - - - -
29/05:00am 6.6 WNW 5 6 1020.1 - 0.6 - - 10 - - - -
29/04:30am 6.9 W 5 6 1019.9 - 0.6 - Partly cloudy 10 - - - -
29/04:00am 7.8 WNW 7 9 1020.1 - 0.6 - - 10 - - - -
29/03:30am 6.2 WNW 8 9 1020.2 - 0.6 - Partly cloudy 8 - - - -
29/03:00am 6.8 WNW 6 7 1020.3 - 0.6 - Mostly clear 2 - - - -
29/02:54am 7.0 WNW 5 6 1020.3 - 0.6 - Partly cloudy 5 - - - -
29/02:30am 8.6 W 5 5 1020.4 - 0.6 - Partly cloudy 9 - - - -
29/02:00am 7.8 WSW 6 8 1020.4 - 0.6 - Partly cloudy 10 - - - -
29/01:44am 8.1 WSW 5 5 1020.2 - 0.6 - Partly cloudy 10 - - - -
29/01:30am 8.5 WSW 6 7 1020.3 - 0.6 - Partly cloudy 5 - - - -
29/01:28am 8.4 WSW 6 7 1020.3 - 0.2 - Partly cloudy 5 - - - -
29/01:24am 8.2 WSW 6 7 1020.4 - 0.2 - Partly cloudy 7 - - - -
29/01:00am 6.4 WNW 2 4 1020.3 - 0.2 - Partly cloudy 5 - - - -
29/12:57am 6.7 WNW 1 4 1020.3 - 0.2 - Partly cloudy 5 - - - -
29/12:30am 8.0 WNW 4 5 1020.3 - 0.2 - Partly cloudy 10 - - - -
29/12:00am 8.2 W 6 7 1020.5 - 0.2 - - 10 - - - -
 
Date/Time
EST
Temp
°C
Wind Pressure Rain since
9am
mm
Weather Cloud Vis
km
Sea
Height
m
Swell
Dir  Spd
kts
Gust
kts
hPa Trend Height
m
Period
s
Dir
28/11:48pm 8.9 W 5 6 1020.5 - 0.2 - - 9 - - - -
28/11:30pm 8.7 WNW 4 5 1020.3 - 0.2 - - 1 - - - -
28/11:12pm 8.6 NW 4 5 1020.3 - 0.2 - - 5 - - - -
28/11:00pm 9.3 WNW 5 7 1020.3 - 0.2 - - 9 - - - -
28/10:30pm 9.4 WNW 6 7 1020.2 - 0.2 - Partly cloudy 9 - - - -
28/10:00pm 10.5 NW 7 9 1020.2 - 0.2 - Partly cloudy 9 - - - -
28/09:30pm 10.5 WNW 7 7 1020.3 - 0.2 - Partly cloudy 10 - - - -
28/09:00pm 10.4 WNW 7 8 1020.1 - 0.0 - Cloudy 9 - - - -
28/08:30pm 10.6 NW 6 8 1020.0 - 0.0 - Partly cloudy 10 - - - -
28/08:00pm 10.6 NW 7 8 1019.8 - 0.0 - Partly cloudy 10 - - - -
28/07:30pm 10.8 NW 7 9 1019.7 - 0.0 - - 10 - - - -
28/07:00pm 11.1 NW 8 10 1019.5 - 0.0 - Partly cloudy 10 - - - -
28/06:30pm 11.3 NW 7 9 1019.3 - 0.0 - Partly cloudy 10 - - - -
28/06:00pm 11.6 NW 7 10 1019.0 - 0.0 - Partly cloudy 10 - - - -
28/05:30pm 12.1 WNW 10 13 1018.8 - 0.0 - Partly cloudy 10 - - - -
28/05:00pm 11.9 WNW 11 15 1018.4 - 0.0 - Partly cloudy 10 - - - -
28/04:30pm 12.1 WNW 10 12 1018.2 - 0.0 - Partly cloudy 10 - - - -
28/04:00pm 13.1 W 7 10 1018.1 - 0.0 - Partly cloudy 10 - - - -
28/03:30pm 13.6 W 13 18 1017.9 - 0.0 - Partly cloudy 10 - - - -
28/03:00pm 13.0 WNW 13 16 1017.7 - 0.0 - Cloudy 8 - - - -
28/02:30pm 13.8 WNW 14 19 1017.3 - 0.0 - Partly cloudy 10 - - - -
28/02:00pm 14.4 WNW 13 16 1017.2 - 0.0 - Partly cloudy 10 - - - -
28/01:30pm 13.9 W 12 17 1017.5 - 0.0 - Partly cloudy 10 - - - -
28/01:00pm 14.3 W 13 18 1017.7 - 0.0 - Partly cloudy 10 - - - -
28/12:30pm 14.0 WNW 13 17 1017.7 - 0.0 - Partly cloudy 10 - - - -
28/12:00pm 13.9 WNW 14 18 1017.7 - 0.0 - Partly cloudy 10 - - - -
28/11:30am 14.5 WNW 13 17 1017.9 - 0.0 - Partly cloudy 10 - - - -
28/11:00am 13.5 WNW 10 15 1018.1 - 0.0 - Partly cloudy 10 - - - -
28/10:57am 13.4 WNW 10 15 1018.2 - 0.0 - Partly cloudy 10 - - - -
28/10:34am 12.6 WNW 8 10 1018.2 - 0.0 - Partly cloudy 10 - - - -
28/10:30am 12.7 WNW 9 11 1018.2 - 0.0 - Cloudy 10 - - - -
28/10:00am 12.3 WNW 9 12 1017.9 - 0.0 - Cloudy 10 - - - -
28/09:30am 11.5 WNW 7 9 1017.8 - 0.0 - Partly cloudy 10 - - - -
28/09:00am 9.2 W 7 8 1017.5 - 0.2 - Mostly clear 10 - - - -
28/08:30am 7.8 W 7 8 1017.3 - 0.2 - Partly cloudy 10 - - - -
28/08:00am 5.6 WNW 7 8 1017.0 - 0.2 - Partly cloudy 10 - - - -
28/07:30am 6.1 W 7 8 1016.8 - 0.2 - Partly cloudy 10 - - - -
28/07:00am 5.8 W 7 8 1016.5 - 0.2 - Partly cloudy 10 - - - -
28/06:30am 4.8 W 6 7 1016.3 - 0.2 - Partly cloudy 10 - - - -
28/06:00am 4.1 W 6 7 1015.9 - 0.2 - Mostly cloudy 10 - - - -
28/05:30am 4.0 W 7 8 1015.7 - 0.2 - Partly cloudy 10 - - - -
28/05:00am 3.8 W 7 8 1015.5 - 0.2 - Partly cloudy 10 - - - -
28/04:30am 4.6 W 5 6 1015.6 - 0.2 - Partly cloudy 10 - - - -
28/04:00am 4.3 W 5 6 1015.7 - 0.2 - Partly cloudy 10 - - - -
28/03:30am 3.0 W 6 7 1015.6 - 0.2 - Partly cloudy 8 - - - -
28/03:00am 3.0 W 5 6 1015.5 - 0.2 - Mostly clear 10 - - - -
28/02:30am 3.9 W 5 6 1015.7 - 0.2 - Partly cloudy 8 - - - -
28/02:00am 2.8 W 5 6 1015.6 - 0.2 - Partly cloudy 10 - - - -
28/01:30am 3.0 WSW 4 6 1015.5 - 0.2 - - 7 - - - -
28/01:27am 3.2 SW 4 5 1015.5 - 0.2 - - 7 - - - -
28/01:06am 3.3 WNW 5 7 1015.6 - 0.2 - Partly cloudy 5 - - - -
28/01:00am 3.9 WNW 5 7 1015.7 - 0.2 - Partly cloudy 6 - - - -
28/12:30am 3.5 WNW 4 5 1015.8 - 0.2 - Partly cloudy 8 - - - -
28/12:19am 3.1 WSW 4 5 1015.8 - 0.2 - Partly cloudy 8 - - - -

Other Formats:

Comma delimited format used in spreadsheet applications
http://www.bom.gov.au/fwo/IDV60701/IDV60701.95957.axf

JavaScript Object Notation format (JSON) in row-major order
http://www.bom.gov.au/fwo/IDV60701/IDV60701.95957.json